Location: Bluff Heights
(33.7692°N, 118.1592°W)
Time: 00:22:59
(UTC+00:00)

Tiros 1 - Pass Details

Date: 28 July 2021
Orbit: 630 x 663 km, 48.4° (Epoch: 20 September)

Event Time Altitude Azimuth Distance (km) Brightness Sun altitude
Rises 06:51:13 0° 309° (NW) 2,957 11.3 -34.9°
Reaches altitude 10° 06:54:41 10° 336° (NNW) 2,038 10.5 -35.1°
Maximum altitude 06:57:07 14° 7° (N) 1,785 10.0 -35.3°
Enters shadow 06:58:49 12° 30° (NNE) 1,908 9.9 -35.4°
Drops below altitude 10° 06:59:32 10° 39° (NE) 2,026 - -35.4°
Sets 07:02:58 0° 65° (ENE) 2,927 - -35.6°
